Time,TemperatureF,DewpointF,PressureIn,WindDirection,WindDirectionDegrees,WindSpeedMPH,WindSpeedGustMPH,Humidity,HourlyPrecipIn,Conditions,Clouds,dailyrainin,SoftwareType,DateUTC
2013-05-23 00:03:00,71.0,71.0,29.96,North,0,0.0,0.0,100,99.99,,,-99.99,,2013-05-23 04:03:00,
2013-05-23 00:12:00,72.0,72.0,29.96,North,0,0.0,0.0,100,99.99,,,-99.99,,2013-05-23 04:12:00,
2013-05-23 00:22:00,72.0,72.0,29.96,North,0,0.0,0.0,100,99.99,,,-99.99,,2013-05-23 04:22:00,
2013-05-23 00:33:00,71.0,71.0,29.96,North,0,0.0,0.0,100,99.99,,,-99.99,,2013-05-23 04:33:00,
2013-05-23 00:43:00,71.0,71.0,29.96,North,0,0.0,0.0,100,99.99,,,-99.99,,2013-05-23 04:43:00,
2013-05-23 00:52:00,71.0,71.0,29.96,North,0,0.0,0.0,100,99.99,,,-99.99,,2013-05-23 04:52:00,
2013-05-23 01:02:00,71.0,71.0,29.95,North,0,0.0,0.0,100,99.99,,,-99.99,,2013-05-23 05:02:00,
2013-05-23 01:11:00,71.0,71.0,29.95,North,0,0.0,0.0,100,99.99,,,-99.99,,2013-05-23 05:11:00,
2013-05-23 01:22:00,71.0,71.0,29.95,North,0,0.0,0.0,100,99.99,,,-99.99,,2013-05-23 05:22:00,
2013-05-23 01:32:00,71.0,71.0,29.95,North,0,0.0,0.0,100,99.99,,,-99.99,,2013-05-23 05:32:00,
2013-05-23 01:42:00,70.0,70.0,29.94,North,0,0.0,0.0,100,99.99,,,-99.99,,2013-05-23 05:42:00,
2013-05-23 01:52:00,70.0,70.0,29.94,North,0,0.0,0.0,100,99.99,,,-99.99,,2013-05-23 05:52:00,
2013-05-23 02:02:00,71.0,71.0,29.94,North,0,0.0,0.0,100,99.99,,,-99.99,,2013-05-23 06:02:00,
2013-05-23 02:12:00,71.0,71.0,29.93,North,0,0.0,0.0,100,99.99,,,-99.99,,2013-05-23 06:12:00,
2013-05-23 02:21:00,71.0,71.0,29.93,North,0,0.0,0.0,100,99.99,,,-99.99,,2013-05-23 06:21:00,
2013-05-23 02:32:00,71.0,71.0,29.93,North,0,0.0,0.0,100,99.99,,,-99.99,,2013-05-23 06:32:00,
2013-05-23 02:42:00,71.0,71.0,29.93,North,0,0.0,0.0,100,99.99,,,-99.99,,2013-05-23 06:42:00,
2013-05-23 02:52:00,71.0,71.0,29.93,North,0,0.0,0.0,100,99.99,,,-99.99,,2013-05-23 06:52:00,
2013-05-23 03:02:00,71.0,71.0,29.93,North,0,0.0,0.0,100,99.99,,,-99.99,,2013-05-23 07:02:00,
2013-05-23 03:11:00,71.0,71.0,29.93,North,0,0.0,0.0,100,99.99,,,-99.99,,2013-05-23 07:11:00,
2013-05-23 03:21:00,71.0,71.0,29.93,ENE,65,2.0,3.0,100,99.99,,,-99.99,,2013-05-23 07:21:00,
2013-05-23 03:32:00,72.0,72.0,29.93,East,82,0.0,1.0,100,99.99,,,-99.99,,2013-05-23 07:32:00,
2013-05-23 03:42:00,71.0,71.0,29.94,East,82,0.0,2.0,100,99.99,,,-99.99,,2013-05-23 07:42:00,
2013-05-23 03:59:00,71.0,71.0,29.94,East,82,0.0,2.0,100,99.99,,,-99.99,,2013-05-23 07:59:00,
2013-05-23 04:11:00,71.0,71.0,29.94,ENE,77,0.0,1.0,100,99.99,,,-99.99,,2013-05-23 08:11:00,
2013-05-23 04:22:00,71.0,71.0,29.94,North,0,0.0,0.0,100,99.99,,,-99.99,,2013-05-23 08:22:00,
2013-05-23 04:32:00,70.0,70.0,29.94,North,0,0.0,0.0,100,99.99,,,-99.99,,2013-05-23 08:32:00,
2013-05-23 04:42:00,70.0,70.0,29.94,North,0,0.0,0.0,100,99.99,,,-99.99,,2013-05-23 08:42:00,
2013-05-23 04:51:00,70.0,70.0,29.94,North,0,0.0,0.0,100,99.99,,,-99.99,,2013-05-23 08:51:00,
2013-05-23 05:02:00,70.0,70.0,29.95,North,0,0.0,0.0,100,99.99,,,-99.99,,2013-05-23 09:02:00,
2013-05-23 05:11:00,70.0,70.0,29.95,North,0,0.0,0.0,100,99.99,,,-99.99,,2013-05-23 09:11:00,
2013-05-23 05:22:00,70.0,70.0,29.95,North,0,0.0,0.0,100,99.99,,,-99.99,,2013-05-23 09:22:00,
2013-05-23 05:33:00,69.0,69.0,29.95,North,0,0.0,0.0,100,99.99,,,-99.99,,2013-05-23 09:33:00,
2013-05-23 05:42:00,69.0,69.0,29.95,North,0,0.0,0.0,100,99.99,,,-99.99,,2013-05-23 09:42:00,
2013-05-23 05:53:00,69.0,69.0,29.95,North,0,0.0,0.0,100,99.99,,,-99.99,,2013-05-23 09:53:00,
2013-05-23 06:03:00,69.0,69.0,29.95,North,0,0.0,0.0,100,99.99,,,-99.99,,2013-05-23 10:03:00,
2013-05-23 06:12:00,69.0,69.0,29.96,North,0,0.0,0.0,100,99.99,,,-99.99,,2013-05-23 10:12:00,
2013-05-23 06:22:00,69.0,69.0,29.96,North,0,0.0,0.0,100,99.99,,,-99.99,,2013-05-23 10:22:00,
2013-05-23 06:32:00,69.0,69.0,29.97,North,349,2.0,3.0,100,99.99,,,-99.99,,2013-05-23 10:32:00,
2013-05-23 06:42:00,69.0,69.0,29.97,North,349,2.0,3.0,100,99.99,,,-99.99,,2013-05-23 10:42:00,
2013-05-23 06:52:00,69.0,69.0,29.97,North,349,1.0,3.0,100,99.99,,,-99.99,,2013-05-23 10:52:00,
2013-05-23 07:02:00,69.0,69.0,29.98,North,0,0.0,0.0,100,99.99,,,-99.99,,2013-05-23 11:02:00,
2013-05-23 07:11:00,69.0,69.0,29.98,North,0,0.0,0.0,100,99.99,,,-99.99,,2013-05-23 11:11:00,
2013-05-23 07:22:00,70.0,70.0,29.99,North,0,0.0,0.0,100,99.99,,,-99.99,,2013-05-23 11:22:00,
2013-05-23 07:32:00,70.0,70.0,29.99,North,0,0.0,0.0,100,99.99,,,-99.99,,2013-05-23 11:32:00,
2013-05-23 07:42:00,70.0,70.0,29.99,North,0,0.0,0.0,100,99.99,,,-99.99,,2013-05-23 11:42:00,
2013-05-23 07:52:00,71.0,71.0,29.99,North,0,0.0,0.0,100,99.99,,,-99.99,,2013-05-23 11:52:00,
2013-05-23 08:01:00,71.0,71.0,29.99,North,0,0.0,0.0,100,99.99,,,-99.99,,2013-05-23 12:01:00,
2013-05-23 08:12:00,71.0,71.0,29.99,North,0,0.0,0.0,100,99.99,,,-99.99,,2013-05-23 12:12:00,
2013-05-23 08:21:00,71.0,71.0,29.99,North,0,0.0,0.0,100,99.99,,,-99.99,,2013-05-23 12:21:00,
2013-05-23 08:32:00,71.0,71.0,29.99,North,0,0.0,0.0,100,99.99,,,-99.99,,2013-05-23 12:32:00,
2013-05-23 08:42:00,71.0,71.0,29.99,North,0,0.0,0.0,100,99.99,,,-99.99,,2013-05-23 12:42:00,
2013-05-23 09:02:00,73.0,73.0,30.02,West,263,0.0,3.0,100,99.99,,,-99.99,,2013-05-23 13:02:00,
2013-05-23 09:11:00,74.0,74.0,30.02,WNW,298,2.0,4.0,100,99.99,,,-99.99,,2013-05-23 13:11:00,
2013-05-23 09:22:00,74.0,74.0,30.02,WNW,298,2.0,4.0,100,99.99,,,-99.99,,2013-05-23 13:22:00,
2013-05-23 09:32:00,74.0,74.0,30.02,WNW,298,2.0,4.0,100,99.99,,,-99.99,,2013-05-23 13:32:00,
2013-05-23 09:42:00,74.0,74.0,30.02,WNW,298,2.0,4.0,100,99.99,,,-99.99,,2013-05-23 13:42:00,
2013-05-23 09:52:00,74.0,74.0,30.02,WNW,298,2.0,4.0,100,99.99,,,-99.99,,2013-05-23 13:52:00,
2013-05-23 10:02:00,76.0,76.0,30.01,NNW,329,6.0,11.0,100,99.99,,,-99.99,,2013-05-23 14:02:00,
2013-05-23 10:11:00,77.0,77.0,30.01,NW,307,4.0,8.0,100,99.99,,,-99.99,,2013-05-23 14:11:00,
2013-05-23 10:21:00,77.0,77.0,30.01,NW,307,4.0,8.0,100,99.99,,,-99.99,,2013-05-23 14:21:00,
2013-05-23 10:32:00,77.0,77.0,30.01,NW,307,4.0,8.0,100,99.99,,,-99.99,,2013-05-23 14:32:00,
2013-05-23 10:42:00,77.0,77.0,30.01,NW,307,4.0,8.0,100,99.99,,,-99.99,,2013-05-23 14:42:00,
2013-05-23 10:52:00,80.0,76.0,30.01,NNW,330,6.0,10.0,87,99.99,,,-99.99,,2013-05-23 14:52:00,
2013-05-23 11:01:00,81.0,73.0,30.01,NNW,330,4.0,7.0,77,99.99,,,-99.99,,2013-05-23 15:01:00,
2013-05-23 11:11:00,81.0,73.0,30.01,NNW,330,4.0,7.0,77,99.99,,,-99.99,,2013-05-23 15:11:00,
2013-05-23 11:21:00,81.0,74.0,30.02,NNW,336,5.0,7.0,79,99.99,,,-99.99,,2013-05-23 15:21:00,
2013-05-23 11:33:00,81.0,74.0,30.02,NNW,336,5.0,7.0,79,99.99,,,-99.99,,2013-05-23 15:33:00,
2013-05-23 11:42:00,81.0,74.0,30.02,NNW,336,5.0,7.0,79,99.99,,,-99.99,,2013-05-23 15:42:00,
2013-05-23 11:53:00,81.0,72.0,30.02,NNW,338,6.0,9.0,75,99.99,,,-99.99,,2013-05-23 15:53:00,
2013-05-23 12:03:00,83.0,72.0,30.03,NNW,336,5.0,9.0,69,99.99,,,-99.99,,2013-05-23 16:03:00,
2013-05-23 12:13:00,83.0,71.0,30.03,WNW,293,5.0,10.0,67,99.99,,,-99.99,,2013-05-23 16:13:00,
2013-05-23 12:23:00,83.0,71.0,30.03,WNW,293,5.0,10.0,67,99.99,,,-99.99,,2013-05-23 16:23:00,
2013-05-23 12:34:00,83.0,71.0,30.03,WNW,293,5.0,10.0,67,99.99,,,-99.99,,2013-05-23 16:34:00,
2013-05-23 12:42:00,83.0,71.0,30.03,WNW,293,5.0,10.0,67,99.99,,,-99.99,,2013-05-23 16:42:00,
2013-05-23 12:52:00,84.0,68.0,30.02,West,260,5.0,8.0,58,99.99,,,-99.99,,2013-05-23 16:52:00,
2013-05-23 13:03:00,84.0,68.0,30.02,West,260,5.0,8.0,58,99.99,,,-99.99,,2013-05-23 17:03:00,
2013-05-23 13:11:00,84.0,68.0,30.02,West,260,5.0,8.0,58,99.99,,,-99.99,,2013-05-23 17:11:00,
2013-05-23 13:23:00,84.0,68.0,30.02,West,260,5.0,8.0,58,99.99,,,-99.99,,2013-05-23 17:23:00,
2013-05-23 13:33:00,85.0,70.0,30.01,WNW,284,5.0,8.0,61,99.99,,,-99.99,,2013-05-23 17:33:00,
2013-05-23 13:43:00,85.0,70.0,30.01,WNW,284,5.0,8.0,61,99.99,,,-99.99,,2013-05-23 17:43:00,
2013-05-23 13:53:00,85.0,70.0,30.01,WNW,284,5.0,8.0,61,99.99,,,-99.99,,2013-05-23 17:53:00,
2013-05-23 14:01:00,85.0,70.0,30.01,WNW,284,5.0,8.0,61,99.99,,,-99.99,,2013-05-23 18:01:00,
2013-05-23 14:11:00,85.0,70.0,30.01,WNW,284,5.0,8.0,61,99.99,,,-99.99,,2013-05-23 18:11:00,
2013-05-23 14:22:00,87.0,70.0,30.00,WNW,301,5.0,11.0,57,99.99,,,-99.99,,2013-05-23 18:22:00,
2013-05-23 14:32:00,87.0,70.0,30.00,WNW,301,5.0,11.0,57,99.99,,,-99.99,,2013-05-23 18:32:00,
2013-05-23 14:42:00,87.0,70.0,30.00,WNW,301,5.0,11.0,57,99.99,,,-99.99,,2013-05-23 18:42:00,
2013-05-23 14:52:00,87.0,70.0,30.00,WNW,301,5.0,11.0,57,99.99,,,-99.99,,2013-05-23 18:52:00,
2013-05-23 15:02:00,88.0,68.0,29.99,West,263,5.0,10.0,52,99.99,,,-99.99,,2013-05-23 19:02:00,
2013-05-23 15:11:00,88.0,68.0,29.99,West,263,5.0,10.0,52,99.99,,,-99.99,,2013-05-23 19:11:00,
2013-05-23 15:21:00,88.0,68.0,29.99,West,263,5.0,10.0,52,99.99,,,-99.99,,2013-05-23 19:21:00,
2013-05-23 15:32:00,88.0,68.0,29.99,West,263,5.0,10.0,52,99.99,,,-99.99,,2013-05-23 19:32:00,
2013-05-23 15:42:00,88.0,68.0,29.99,West,263,5.0,10.0,52,99.99,,,-99.99,,2013-05-23 19:42:00,
2013-05-23 16:02:00,89.0,67.0,29.97,WSW,257,3.0,7.0,49,99.99,,,-99.99,,2013-05-23 20:02:00,
2013-05-23 16:12:00,89.0,67.0,29.97,WSW,257,3.0,7.0,49,99.99,,,-99.99,,2013-05-23 20:12:00,
2013-05-23 16:22:00,89.0,67.0,29.97,WSW,257,3.0,7.0,49,99.99,,,-99.99,,2013-05-23 20:22:00,
2013-05-23 16:32:00,89.0,67.0,29.97,WSW,257,3.0,7.0,49,99.99,,,-99.99,,2013-05-23 20:32:00,
2013-05-23 16:42:00,89.0,67.0,29.97,WSW,257,3.0,7.0,49,99.99,,,-99.99,,2013-05-23 20:42:00,
2013-05-23 17:01:00,89.0,68.0,29.95,WNW,291,6.0,11.0,50,99.99,,,-99.99,,2013-05-23 21:01:00,
2013-05-23 17:11:00,89.0,68.0,29.95,WNW,291,6.0,11.0,50,99.99,,,-99.99,,2013-05-23 21:11:00,
2013-05-23 17:22:00,89.0,70.0,29.95,West,280,7.0,11.0,54,99.99,,,-99.99,,2013-05-23 21:22:00,
2013-05-23 17:32:00,89.0,70.0,29.95,West,280,7.0,11.0,54,99.99,,,-99.99,,2013-05-23 21:32:00,
2013-05-23 17:43:00,89.0,70.0,29.95,West,280,7.0,11.0,54,99.99,,,-99.99,,2013-05-23 21:43:00,
2013-05-23 17:53:00,89.0,66.0,29.95,WNW,300,5.0,7.0,47,99.99,,,-99.99,,2013-05-23 21:53:00,
2013-05-23 18:03:00,89.0,66.0,29.95,WNW,300,5.0,7.0,47,99.99,,,-99.99,,2013-05-23 22:03:00,
2013-05-23 18:12:00,89.0,66.0,29.95,WNW,300,5.0,7.0,47,99.99,,,-99.99,,2013-05-23 22:12:00,
2013-05-23 18:22:00,89.0,66.0,29.95,WNW,300,5.0,7.0,47,99.99,,,-99.99,,2013-05-23 22:22:00,
2013-05-23 19:02:00,88.0,72.0,29.94,WNW,288,7.0,12.0,60,99.99,,,-99.99,,2013-05-23 23:02:00,
2013-05-23 19:12:00,87.0,72.0,29.94,West,276,6.0,9.0,61,99.99,,,-99.99,,2013-05-23 23:12:00,
2013-05-23 19:22:00,87.0,72.0,29.94,West,276,6.0,9.0,61,99.99,,,-99.99,,2013-05-23 23:22:00,
2013-05-23 19:32:00,87.0,72.0,29.94,West,276,6.0,9.0,61,99.99,,,-99.99,,2013-05-23 23:32:00,
2013-05-23 19:42:00,87.0,72.0,29.94,West,276,6.0,9.0,61,99.99,,,-99.99,,2013-05-23 23:42:00,
2013-05-23 19:52:00,87.0,72.0,29.94,West,276,6.0,9.0,61,99.99,,,-99.99,,2013-05-23 23:52:00,
2013-05-23 20:01:00,85.0,71.0,29.96,WSW,257,6.0,12.0,64,99.99,,,-99.99,,2013-05-24 00:01:00,
2013-05-23 20:12:00,85.0,71.0,29.96,WSW,257,6.0,12.0,64,99.99,,,-99.99,,2013-05-24 00:12:00,
2013-05-23 20:21:00,85.0,71.0,29.96,WSW,257,6.0,12.0,64,99.99,,,-99.99,,2013-05-24 00:21:00,
2013-05-23 20:32:00,85.0,71.0,29.96,WSW,257,6.0,12.0,64,99.99,,,-99.99,,2013-05-24 00:32:00,
2013-05-23 20:52:00,82.0,72.0,29.98,WNW,293,4.0,7.0,71,99.99,,,-99.99,,2013-05-24 00:52:00,
2013-05-23 21:01:00,82.0,72.0,29.98,WNW,293,4.0,7.0,71,99.99,,,-99.99,,2013-05-24 01:01:00,
2013-05-23 21:12:00,82.0,72.0,29.98,WNW,293,4.0,7.0,71,99.99,,,-99.99,,2013-05-24 01:12:00,
2013-05-23 21:22:00,81.0,73.0,29.99,NNW,333,4.0,7.0,76,99.99,,,-99.99,,2013-05-24 01:22:00,
2013-05-23 21:32:00,80.0,72.0,29.99,WNW,302,4.0,6.0,76,99.99,,,-99.99,,2013-05-24 01:32:00,
2013-05-23 21:42:00,80.0,72.0,29.99,WNW,302,4.0,6.0,76,99.99,,,-99.99,,2013-05-24 01:42:00,
2013-05-23 21:52:00,79.0,72.0,30.00,NNW,333,5.0,9.0,78,99.99,,,-99.99,,2013-05-24 01:52:00,
2013-05-23 22:02:00,79.0,72.0,30.00,NNW,330,4.0,6.0,79,99.99,,,-99.99,,2013-05-24 02:02:00,
2013-05-23 22:12:00,79.0,72.0,30.00,NNW,330,4.0,6.0,79,99.99,,,-99.99,,2013-05-24 02:12:00,
2013-05-23 22:21:00,78.0,72.0,30.01,NW,325,5.0,6.0,83,99.99,,,-99.99,,2013-05-24 02:21:00,
2013-05-23 22:32:00,78.0,73.0,30.01,NNW,328,4.0,8.0,85,99.99,,,-99.99,,2013-05-24 02:32:00,
2013-05-23 22:42:00,78.0,73.0,30.01,NNW,328,4.0,8.0,85,99.99,,,-99.99,,2013-05-24 02:42:00,
2013-05-23 22:52:00,78.0,73.0,30.01,NNW,328,4.0,8.0,85,99.99,,,-99.99,,2013-05-24 02:52:00,
2013-05-23 23:02:00,77.0,74.0,30.01,NW,326,4.0,5.0,89,99.99,,,-99.99,,2013-05-24 03:02:00,
2013-05-23 23:11:00,76.0,74.0,30.01,North,0,0.0,0.0,95,99.99,,,-99.99,,2013-05-24 03:11:00,
2013-05-23 23:22:00,76.0,74.0,30.01,North,0,0.0,0.0,95,99.99,,,-99.99,,2013-05-24 03:22:00,
2013-05-23 23:33:00,76.0,75.0,30.01,WNW,295,0.0,2.0,97,99.99,,,-99.99,,2013-05-24 03:33:00,
2013-05-23 23:42:00,76.0,75.0,30.01,WNW,295,0.0,2.0,97,99.99,,,-99.99,,2013-05-24 03:42:00,
2013-05-23 23:53:00,75.0,74.0,30.01,North,0,0.0,0.0,97,99.99,,,-99.99,,2013-05-24 03:53:00,